STARLINK-35222 (65677 NORAD) Tracking and Keplerian Element Data

This shows tracking and keplerian element data for the satellite.

Feedback or suggestion? Click here.




ElementValue
Catalog65677
NameSTARLINK-35222
Epoch Orbit1501
Epoch Day353.73937219
Epoch Year2025
RAAN356.9805
Inclination53.1612
Eccentricity0.0001886
Argument of Perigee86.0113
Mean Anonmoly274.1103
Mean Motion15.30201364
Decay Rate0.00012299
L11 65677U 25212B 25353.73937219 .00012299 00000+0 42666-3 0 9991
L22 65677 53.1612 356.9805 0001886 86.0113 274.1103 15.30201364 15019



Live tracking and technical data element details for STARLINK-35222 (NORAD 65677). STARLINK-35222 can be tracked NOW for your location showing map with azimuth and elevation plus other details from your city location.







IsCatalogInMostPopularTable: catalog: 65677, numindb: 3
Update: records affected: 1



GetName: 65677 STARLINK-35222

Hit Count: updated at: Sun, 08 Feb 2026 09:08:26 GMT